Le nostre stazioni meteo in Italia

Pubblicità
Il mio iltempo24.it
Capo Carbonara, Italia (16564): Temperatura & dewpoint: 12.03.2019 20:00:00 - 18.03.2019 20:00:00 (CET)Capo Carbonara, Italia (16564): velocità del vento: 12.03.2019 20:00:00 - 18.03.2019 20:00:00 (CET)Capo Carbonara, Italia (16564): direzione del vento: 12.03.2019 20:00:00 - 18.03.2019 20:00:00 (CET)Capo Carbonara, Italia (16564): reduced air pressure: 12.03.2019 20:00:00 - 18.03.2019 20:00:00 (CET)Capo Carbonara, Italia (16564): visibility: 12.03.2019 20:00:00 - 18.03.2019 20:00:00 (CET)
Data & Tempo tt [°C] td [°C] ff [km/h] ff [kn] dd ppp [hPa] vv [km]
18.03.2019 20:00:00 - - - - - - -
18.03.2019 19:00:00 12,4 6,6 48 26 O 1015,6 20
18.03.2019 18:00:00 14,0 8,0 48 26 O - 10
18.03.2019 17:00:00 17,0 8,0 39 21 O - 10
18.03.2019 16:00:00 17,4 6,9 42 23 O 1014,1 20
18.03.2019 15:00:00 18,0 3,0 41 22 O - 10
18.03.2019 14:00:00 17,0 11,0 65 35 O - 10
18.03.2019 13:00:00 16,4 11,3 68 37 O 1013,8 20
18.03.2019 12:00:00 16,0 9,0 52 28 O - 10
18.03.2019 11:00:00 16,0 10,0 34 18 O - 10
18.03.2019 10:00:00 14,2 10,6 29 16 O 1014,6 20
18.03.2019 09:00:00 13,0 10,0 9 5 O - 10
18.03.2019 08:00:00 13,0 10,0 15 8 ESE - 10
18.03.2019 07:00:00 13,0 10,0 11 6 O - 10
18.03.2019 06:00:00 14,0 8,0 4 2 ESE - 10
18.03.2019 05:00:00 12,0 10,0 44 24 O - 10
18.03.2019 04:00:00 12,4 9,8 37 20 OSO 1012,8 20
18.03.2019 03:00:00 13,0 9,0 37 20 OSO - 10
18.03.2019 02:00:00 13,0 10,0 37 20 OSO - 10
18.03.2019 01:00:00 12,6 10,2 28 15 OSO 1014,0 20
18.03.2019 00:00:00 13,0 10,0 26 14 OSO - 10
17.03.2019 23:00:00 13,0 10,0 22 12 OSO - 10
17.03.2019 22:00:00 12,6 9,9 15 8 SO 1014,2 20
17.03.2019 21:00:00 13,0 11,0 18 10 SO - 10
17.03.2019 20:00:00 13,0 11,0 11 6 SO - 10
17.03.2019 19:00:00 15,0 12,7 15 8 SO 1014,2 20
17.03.2019 18:00:00 16,0 14,0 26 14 OSO - 10
17.03.2019 17:00:00 17,0 14,0 22 12 SO - 10
17.03.2019 16:00:00 17,8 14,9 22 12 SO 1015,9 20
17.03.2019 15:00:00 18,0 15,0 22 12 SSO - 10
17.03.2019 14:00:00 19,0 16,0 15 8 NNO - 10
17.03.2019 13:00:00 19,0 11,6 15 8 S 1018,5 20
17.03.2019 12:00:00 17,0 15,0 15 8 NO - 10
17.03.2019 11:00:00 16,0 13,0 8 4 SE - 10
17.03.2019 10:00:00 14,0 11,6 8 4 ESE 1018,3 20
17.03.2019 09:00:00 12,0 10,0 8 4 E - 10
17.03.2019 08:00:00 12,0 10,0 2 1 NNE - 10
17.03.2019 07:00:00 11,0 8,8 4 2 N 1018,3 20
17.03.2019 06:00:00 12,0 10,0 9 5 ENE - 10
17.03.2019 05:00:00 12,0 10,0 11 6 ENE - 10
17.03.2019 04:00:00 13,0 6,6 8 4 NNE 1018,5 10
17.03.2019 03:00:00 13,0 7,0 8 4 NNE - 10
17.03.2019 02:00:00 13,0 8,0 5 3 O - 10
17.03.2019 01:00:00 12,2 7,8 5 3 O 1019,2 20
17.03.2019 00:00:00 12,0 10,0 8 4 OSO - 10
16.03.2019 23:00:00 12,0 10,0 9 5 ONO - 10
16.03.2019 22:00:00 12,4 10,3 22 12 O 1018,7 20
16.03.2019 21:00:00 13,0 11,0 42 23 O - 10
16.03.2019 20:00:00 14,0 12,0 55 30 O - 10
16.03.2019 19:00:00 14,8 10,9 48 26 O 1017,7 20
16.03.2019 18:00:00 18,0 12,0 42 23 OSO - 10
16.03.2019 17:00:00 19,0 12,0 44 24 O - 10
16.03.2019 16:00:00 19,2 12,7 61 33 O 1017,1 10
16.03.2019 15:00:00 18,0 15,0 72 39 O - 10
16.03.2019 14:00:00 18,0 13,0 74 40 O - 10
16.03.2019 13:00:00 17,4 12,5 67 36 O 1017,7 20
16.03.2019 12:00:00 17,0 13,0 72 39 O - 10
16.03.2019 11:00:00 16,0 12,0 67 36 O - 10
16.03.2019 10:00:00 14,4 11,2 65 35 O 1018,1 10
16.03.2019 09:00:00 13,0 11,0 59 32 O - 10
16.03.2019 08:00:00 - - - - - - -
16.03.2019 07:00:00 13,0 10,6 67 36 O 1018,2 10
16.03.2019 06:00:00 - - - - - - -
16.03.2019 05:00:00 - - - - - - -
16.03.2019 04:00:00 13,2 11,1 67 36 O 1017,6 10
16.03.2019 03:00:00 - - - - - - -
16.03.2019 02:00:00 - - - - - - -
16.03.2019 01:00:00 13,4 10,9 50 27 O 1018,4 10
16.03.2019 00:00:00 13,0 11,0 35 19 O - 10
15.03.2019 23:00:00 14,0 11,0 28 15 O - 10
15.03.2019 22:00:00 13,2 10,9 34 18 O 1019,0 10
15.03.2019 21:00:00 14,0 11,0 35 19 ONO - 10
15.03.2019 20:00:00 13,0 11,0 42 23 O - 10
15.03.2019 19:00:00 13,6 11,5 52 28 O 1017,3 10
15.03.2019 18:00:00 14,0 12,0 55 30 O - 10
15.03.2019 17:00:00 14,0 12,0 68 37 O - 10
15.03.2019 16:00:00 16,4 12,6 61 33 ONO 1016,2 20
15.03.2019 15:00:00 16,0 12,0 70 38 O - 10
15.03.2019 14:00:00 17,0 13,0 63 34 O - 10
15.03.2019 13:00:00 16,0 12,7 72 39 O 1016,3 20
15.03.2019 12:00:00 17,0 12,0 52 28 ONO - 10
15.03.2019 11:00:00 16,0 12,0 44 24 NO - 10
15.03.2019 10:00:00 14,0 10,9 61 33 ONO 1016,5 10
15.03.2019 09:00:00 13,0 11,0 48 26 O - 10
15.03.2019 08:00:00 13,0 10,0 61 33 ONO - 10
15.03.2019 07:00:00 12,2 10,3 54 29 ONO 1016,2 10
15.03.2019 06:00:00 12,0 10,0 76 41 ONO - 10
15.03.2019 05:00:00 12,0 10,0 93 50 ONO - 10
15.03.2019 04:00:00 12,6 9,9 67 36 O 1015,9 10
15.03.2019 03:00:00 13,0 10,0 65 35 O - 10
15.03.2019 02:00:00 13,0 11,0 91 49 O - 10
15.03.2019 01:00:00 12,6 10,2 81 44 O 1016,0 10
15.03.2019 00:00:00 12,0 9,0 94 51 O - 10
14.03.2019 23:00:00 12,0 9,0 94 51 ONO - 10
14.03.2019 22:00:00 12,0 9,5 91 49 O 1016,4 10
14.03.2019 21:00:00 12,0 10,0 70 38 O - 10
14.03.2019 20:00:00 11,0 8,0 48 26 ONO - 10
14.03.2019 19:00:00 11,2 7,9 57 31 ONO 1018,1 10
14.03.2019 18:00:00 12,0 8,0 50 27 O - 10
14.03.2019 17:00:00 13,0 9,0 57 31 ONO - 10
14.03.2019 16:00:00 13,2 7,6 67 36 O 1017,7 10
14.03.2019 15:00:00 14,0 7,0 42 23 ONO - 10
14.03.2019 14:00:00 14,0 8,0 70 38 ONO - 10
14.03.2019 13:00:00 14,0 7,3 68 37 ONO 1017,6 10
14.03.2019 12:00:00 13,0 9,0 85 46 O - 10
14.03.2019 11:00:00 13,0 8,0 63 34 O - 10
14.03.2019 10:00:00 12,2 6,9 67 36 ONO 1017,6 20
14.03.2019 09:00:00 11,0 7,0 68 37 ONO - 10
14.03.2019 08:00:00 11,0 6,0 70 38 NNE - 10
14.03.2019 07:00:00 10,4 6,5 55 30 NO 1017,5 20
14.03.2019 06:00:00 11,0 8,0 48 26 NO - 10
14.03.2019 05:00:00 10,0 8,0 46 25 NO - 10
14.03.2019 04:00:00 10,2 8,0 67 36 O 1016,4 20
14.03.2019 03:00:00 11,0 9,0 115 62 O - 10
14.03.2019 02:00:00 11,0 9,0 91 49 O - 10
14.03.2019 01:00:00 10,8 7,9 41 22 O 1017,4 20
14.03.2019 00:00:00 11,0 8,0 44 24 ONO - 10
13.03.2019 23:00:00 11,0 8,0 37 20 ONO - 10
13.03.2019 22:00:00 11,0 8,5 52 28 O 1016,5 20
13.03.2019 21:00:00 11,0 8,0 39 21 O - 10
13.03.2019 20:00:00 10,0 8,0 42 23 O - 10
13.03.2019 19:00:00 12,0 10,0 39 21 O - 10
13.03.2019 18:00:00 - - - - - - -
13.03.2019 17:00:00 - - - - - - -
13.03.2019 16:00:00 15,2 12,7 34 18 SO 1015,8 10
13.03.2019 15:00:00 - - - - - - -
13.03.2019 14:00:00 - - - - - - -
13.03.2019 13:00:00 15,2 12,2 37 20 S 1018,3 10
13.03.2019 12:00:00 - - - - - - -
13.03.2019 11:00:00 13,0 10,0 41 22 OSO - 10
13.03.2019 10:00:00 11,8 9,4 31 17 OSO 1020,0 10
13.03.2019 09:00:00 10,0 8,0 24 13 OSO - 10
13.03.2019 08:00:00 - - - - - - -
13.03.2019 07:00:00 9,8 7,5 15 8 O 1020,5 20
13.03.2019 06:00:00 10,0 7,0 18 10 O - 10
13.03.2019 05:00:00 10,0 8,0 26 14 O - 10
13.03.2019 04:00:00 10,0 8,3 26 14 ONO 1021,6 10
13.03.2019 03:00:00 10,0 9,0 34 18 O - 10
13.03.2019 02:00:00 11,0 7,0 22 12 ONO - 10
13.03.2019 01:00:00 10,4 8,1 29 16 O 1022,5 10
13.03.2019 00:00:00 10,0 6,0 22 12 O - 10
12.03.2019 23:00:00 10,0 5,0 11 6 O - 10
12.03.2019 22:00:00 10,0 3,7 11 6 NO 1024,9 10
12.03.2019 21:00:00 10,0 5,0 11 6 O - 10
12.03.2019 20:00:00 11,0 5,0 4 2 N - 10

tt = Temperatura
td = dewpoint
ff = velocità del vento
dd = direzione del vento
ppp = reduced air pressure
vv = visibility

Stazioni seguenti

WeatherPro
AMSI
MeteoEarth